AirNav   ATP
 
 471 users online  

9OA8 Crocker Airport
Columbia Station, Ohio, USA

GOING TO COLUMBIA STATION?


FAA INFORMATION EFFECTIVE 14 SEPTEMBER 2017

Location

FAA Identifier: 9OA8
Lat/Long: 41-16-56.1880N / 081-56-56.4990W
41-16.936467N / 081-56.941650W
41.2822744 / -81.9490275
(estimated)
Elevation: 830 ft. / 253 m (estimated)
Variation: 06W (1985)
From city: 3 miles S of COLUMBIA STATION, OH
Time zone: UTC -4 (UTC -5 during Standard Time)
Zip code: 44028

Airport Operations

Airport use: Private use. Permission required prior to landing
Activation date: 10/1953
Control tower: no
ARTCC: CLEVELAND CENTER
FSS: CLEVELAND FLIGHT SERVICE STATION
Attendance: UNATNDD
Wind indicator: no
Segmented circle: no

Airport Communications

WX ASOS at CLE (9 nm NE): PHONE 216-267-9955
WX ASOS at LPR (11 nm W): 121.425 (440-323-7088)
WX ASOS at BKL (19 nm NE): 125.25 (216-241-6904)

Nearby radio navigation aids

VOR radial/distance  VOR name  Freq  Var
DJBr120/10.6DRYER VOR/DME113.6005W
ACOr291/35.3AKRON VOR/DME114.4004W
CXRr253/38.1CHARDON VOR/DME112.7005W
MFDr052/38.2MANSFIELD VORTAC108.8003W

 
NDB name  Hdg/Dist  Freq  Var  ID
LAKELAND235/35.126308WLQL .-.. --.- .-..

Airport Services

Runway Information

Runway E/W

Dimensions: 1700 x 50 ft. / 518 x 15 m
Surface: turf
RUNWAY E  RUNWAY W
Traffic pattern: leftleft

Airport Ownership and Management from official FAA records

Ownership: Privately-owned
Owner: GARY CROCKER
4479 FREDERICKSBURG ROAD
WOOSTER, OH 44691
Phone 216-264-8776

Additional Remarks

EMERGENCY USE ONLY.

Instrument Procedures

There are no published instrument procedures at 9OA8.

Some nearby airports with instrument procedures:

1G1 - Elyria Airport (7 nm NW)
KCLE - Cleveland-Hopkins International Airport (9 nm NE)
KLPR - Lorain County Regional Airport (11 nm W)
1G5 - Medina Municipal Airport (12 nm SE)
KBKL - Burke Lakefront Airport (19 nm NE)
3G3 - Wadsworth Municipal Airport (19 nm SE)
 
Loc | Ops | Rwys | IFR | FBO | Links
Com | Nav | Svcs | Stats | Notes


 
Area around 9OA8 (Crocker Airport)
 
Road maps at: MapQuest Bing Google
 
Aerial photo
No photo
 
Sectional chart

 
Airport distance calculator
Flying to Crocker Airport? Find the distance to fly.

From to 9OA8

Sunrise and sunset
Times for 23-Sep-2017
 Local
(UTC-4)
 Zulu
(UTC)
Morning civil twilight06:5010:50
Sunrise07:1711:17
Sunset19:2323:23
Evening civil twilight19:5123:51

Current date and time
Zulu (UTC)  23-Sep-2017 11:10:23
Local (UTC-4)  23-Sep-2017 07:10:23
 
METAR
KCLE 
9nm NE 
231051Z 00000KT 10SM CLR 18/15 A3013 RMK AO2 SLP197 T01830150
KLPR 
11nm W 
231053Z AUTO 23003KT 4SM HZ CLR 15/12 A3012 RMK AO2 SLP196 T01500122
KBKL 
20nm NE 
231053Z 21003KT 10SM CLR 19/14 A3010 RMK AO2 SLP191 T01890144
TAF
KCLE 
9nm NE 
230532Z 2306/2412 16002KT P6SM SCT250 FM231700 01009KT P6SM FEW250 FM240200 13002KT P6SM FEW250
NOTAMs
Click for the latest NOTAMs
NOTAMs are issued by the DoD/FAA and will open in a separate window not controlled by AirNav.

 

 
 

Would you like to see your business listed on this page?

 If your business provides an interesting product or service to pilots, flight crews, aircraft, or users of the Crocker Airport, you should consider listing it here.  To start the listing process, click on the button below
 
Add a business
 

Other Pages about Crocker Airport

Update a link
 
Copyright © AirNav, LLC. All rights reserved. Privacy Policy  Contact